This is the latest recevied weather packets stored in our database for station/object W7TRD. If no packets are shown the sender has not sent any weather packets the latest 10 day(s).
| Time | Temp. | Humidity | Pressure | Rain* | Wind** | Luminosity | Snow |
|---|---|---|---|---|---|---|---|
| 1777853400 | 32.78° C | 32% | 1007.9 hPa | 0 mm | - | 360 W/m² | - |
| 1777853097 | 33.33° C | 34% | 1008.2 hPa | 0 mm | - | 375 W/m² | - |
| 1777852794 | 33.33° C | 32% | 1008.2 hPa | 0 mm | - | 389 W/m² | - |
| 1777852492 | 32.78° C | 33% | 1008.2 hPa | 0 mm | - | 403 W/m² | - |
| 1777852189 | 33.33° C | 31% | 1008.2 hPa | 0 mm | - | 416 W/m² | - |
| 1777851886 | 33.33° C | 30% | 1008.4 hPa | 0 mm | - | 429 W/m² | - |
| 1777851584 | 33.89° C | 30% | 1008.4 hPa | 0 mm | - | 439 W/m² | - |
| 1777851280 | 33.89° C | 29% | 1008.4 hPa | 0 mm | - | 452 W/m² | - |
| 1777850977 | 33.89° C | 31% | 1008.3 hPa | 0 mm | - | 465 W/m² | - |
| 1777850674 | 33.33° C | 31% | 1008.6 hPa | 0 mm | - | 478 W/m² | - |
| 1777850372 | 33.33° C | 30% | 1008.4 hPa | 0 mm | - | 491 W/m² | - |
| 1777850069 | 33.89° C | 30% | 1008.5 hPa | 0 mm | - | 502 W/m² | - |
| 1777849765 | 33.89° C | 30% | 1008.5 hPa | 0 mm | - | 514 W/m² | - |
| 1777849462 | 33.89° C | 32% | 1008.7 hPa | 0 mm | - | 523 W/m² | - |
| 1777849160 | 33.33° C | 32% | 1008.9 hPa | 0 mm | - | 536 W/m² | - |
| 1777848856 | 33.89° C | 31% | 1009 hPa | 0 mm | - | 547 W/m² | - |
| 1777848552 | 33.33° C | 32% | 1008.9 hPa | 0 mm | - | 557 W/m² | - |
| 1777848249 | 32.78° C | 31% | 1009.1 hPa | 0 mm | - | 569 W/m² | - |
| 1777847947 | 33.33° C | 31% | 1009.2 hPa | 0 mm | - | 580 W/m² | - |
| 1777847645 | 33.89° C | 31% | 1009.2 hPa | 0 mm | - | 587 W/m² | - |
| 1777847339 | 34.44° C | 31% | 1009.2 hPa | 0 mm | - | 598 W/m² | - |
| 1777847038 | 33.89° C | 29% | 1009.2 hPa | 0 mm | - | 609 W/m² | - |
| 1777846736 | 33.89° C | 30% | 1009.5 hPa | 0 mm | - | 614 W/m² | - |
| 1777846434 | 33.89° C | 30% | 1009.3 hPa | 0 mm | - | 624 W/m² | - |
| 1777846130 | 33.89° C | 30% | 1009.4 hPa | 0 mm | - | 634 W/m² | - |
* Rain latest hour (hover to see other rain measurements)
** Current wind speed in m/s (hover to see current wind gust speed)